Flag Weather past 2 weeks in Taipei, Taiwan

Now
72 °F

Broken clouds.


Feels Like: 75 °F
Forecast: 71 / 77 °F
Wind: 16 mph from East

Location: Sungshan / Taipei

Current Time: Nov 26, 2014 at 5:30:46 PM

Latest Report: Nov 26, 2014 at 5:00 PM


Visibility: N/A

Pressure: 29.98 "Hg

Humidity: 69%

Dew point: 61 °F

Location of TaipeiLocation

Historic Weather in Taipei — Graph

°F

Taipei temperature yesterday

Maximum temperature yesterday: 82 °F (at 2:00 PM)
Minimum temperature yesterday: 66 °F (at 5:00 AM)
Average temperature yesterday: 73 °F

Past Weeks' High & Low Weather Summary

 TemperatureHumidityPressure
High86 °F (Nov 23, 11:30 AM)100% (Nov 16, 7:00 AM)30.24 "Hg (Nov 16, 7:00 AM)
Low63 °F (Nov 13, 6:00 AM)40% (Nov 23, 12:30 PM)29.86 "Hg (Nov 25, 2:00 PM)
Average71 °F73%30.08 "Hg
* Reported Nov 11 4:00 PM — Nov 26 4:30 PM, Taipei, Weather by CustomWeather, © 2014

Note: Actual official high and low records may vary slightly from our data, if they occured in-between our weather recording intervals... More about our weather records

Advertising

Taipei weather history for previous 24 hours

 ConditionsComfort  
Time TempWeatherWind HumidityBarometerVisibility
4:30 PM
Nov 26
72 °FBroken clouds.14 mph69%29.98 "HgN/A
4:00 PM72 °FBroken clouds.16 mph69%29.98 "HgN/A
3:30 PM73 °FBroken clouds.17 mph65%29.98 "HgN/A
3:00 PM75 °FBroken clouds.14 mph61%29.98 "HgN/A
2:30 PM75 °FScattered clouds.16 mph61%29.98 "HgN/A
2:00 PM77 °FScattered clouds.13 mph57%29.95 "HgN/A
1:30 PM77 °FScattered clouds.13 mph57%29.98 "HgN/A
1:00 PM77 °FScattered clouds.12 mph57%29.98 "HgN/A
12:30 PM75 °FPartly sunny.14 mph65%29.98 "HgN/A
12:00 PM75 °FPartly sunny.16 mph65%29.98 "HgN/A
11:30 AM77 °FPartly sunny.15 mph65%30.01 "HgN/A
11:00 AM77 °FPartly sunny.15 mph61%30.01 "HgN/A
10:30 AM77 °FScattered clouds.14 mph61%30.01 "HgN/A
10:00 AM77 °FScattered clouds.15 mph61%30.01 "HgN/A
9:30 AM75 °FPartly sunny.13 mph65%30.04 "HgN/A
9:00 AM75 °FPartly sunny.12 mph69%30.01 "HgN/A
8:30 AM73 °FPartly sunny.6 mph74%30.01 "HgN/A
8:00 AM72 °FPartly sunny.5 mph78%30.01 "Hg5 mi
7:30 AM72 °FScattered clouds.1 mph78%30.01 "Hg4 mi
7:00 AM68 °FFog.No wind88%30.01 "Hg3 mi
6:30 AM70 °FScattered clouds.1 mph83%29.98 "Hg4 mi
6:00 AM68 °FPassing clouds.2 mph88%29.98 "Hg5 mi
5:00 AM70 °FPassing clouds.2 mph83%29.95 "HgN/A
4:00 AM70 °FPassing clouds.5 mph83%29.95 "HgN/A
3:00 AM68 °FPassing clouds.6 mph88%29.92 "HgN/A
2:00 AM70 °FPassing clouds.2 mph83%29.92 "HgN/A
1:00 AM70 °FPassing clouds.No wind83%29.92 "HgN/A
12:00 AM70 °FPassing clouds.3 mph83%29.92 "HgN/A
11:30 PM
Nov 25
70 °FPassing clouds.6 mph83%29.92 "Hg6 mi
11:00 PM70 °FPassing clouds.8 mph83%29.92 "Hg6 mi
10:30 PM70 °FPassing clouds.8 mph83%29.92 "Hg5 mi
10:00 PM70 °FPassing clouds.7 mph83%29.92 "Hg5 mi
9:30 PM70 °FPassing clouds.9 mph83%29.92 "Hg5 mi
9:00 PM72 °FPassing clouds.6 mph78%29.92 "Hg5 mi
8:30 PM72 °FPassing clouds.6 mph78%29.92 "Hg5 mi
8:00 PM72 °FPassing clouds.9 mph78%29.92 "Hg5 mi
7:30 PM72 °FPassing clouds.10 mph78%29.92 "Hg5 mi
7:00 PM72 °FPassing clouds.15 mph83%29.89 "Hg4 mi
6:30 PM72 °FPassing clouds.10 mph83%29.89 "Hg4 mi
6:00 PM72 °FPassing clouds.12 mph83%29.89 "Hg5 mi
5:30 PM73 °FPassing clouds.13 mph78%29.89 "Hg5 mi
5:00 PM73 °FScattered clouds.13 mph78%29.89 "Hg4 mi
Weather by CustomWeather, © 2014

See weather overviewHow to use our weather pages